GW5423 Weather Reports


time (UTC)temp
F
wind
direction
speed
knots
gust
knots
rain 1hr
in
rain 24hr
in
rain mn
in
humidity
%
barometer
mb
20260505160552 40 70 2.6 7.0 0.02 0.14 0.10 91 1012.5
20260505153056 40 123 1.7 3.5 0.00 0.12 0.08 91 1012.2
20260505152556 40 51 0.0 4.3 0.00 0.12 0.08 91 1012.2
20260505152053 40 0 0.9 7.8 0.00 0.12 0.08 91 1012.1
20260505151557 40 34 2.6 7.8 0.00 0.12 0.08 91 1012.2
20260505151053 40 55 0.9 4.3 0.00 0.12 0.08 91 1012.2
20260505150552 40 111 1.7 4.3 0.00 0.12 0.08 91 1012.2
20260505140554 40 9 0.9 2.6 0.02 0.12 0.08 91 1012.1
20260505140116 40 34 0.0 3.5 0.02 0.12 0.08 91 1012.2
20260505124601 42 165 1.7 5.2 0.01 0.09 0.05 90 1011.3
20260505124052 42 192 1.7 4.3 0.01 0.09 0.05 90 1011.3
20260505123552 42 201 0.9 1.7 0.01 0.09 0.05 91 1011.2
20260505123058 42 229 0.9 1.7 0.01 0.09 0.05 91 1011.2
20260505122552 42 0 0.0 1.7 0.01 0.09 0.05 91 1011.2
20260505122054 42 247 0.9 3.5 0.01 0.09 0.05 91 1011.2
20260505121557 42 0 0.9 3.5 0.02 0.09 0.05 90 1011.2
20260505121052 42 57 1.7 3.5 0.02 0.09 0.05 90 1011.2
20260505120554 42 334 1.7 3.5 0.02 0.09 0.05 90 1011.1
20260505120111 42 205 0.9 3.5 0.02 0.09 0.05 90 1011.2
20260505115551 42 319 0.9 3.5 0.02 0.09 0.05 90 1011.2
20260505115053 43 0 0.9 3.5 0.02 0.09 0.05 90 1011.2
20260505114557 43 34 0.0 1.7 0.01 0.08 0.04 90 1011.1
20260505114054 43 298 0.0 2.6 0.02 0.08 0.04 90 1011.2
20260505113554 43 0 0.0 4.3 0.03 0.08 0.04 90 1011.2
20260505113101 43 115 0.9 4.3 0.03 0.08 0.04 89 1011.2
20260505112552 43 229 2.6 4.3 0.03 0.08 0.04 89 1011.1
20260505112054 43 221 1.7 6.1 0.04 0.08 0.04 89 1011.2
20260505111555 43 239 3.5 6.1 0.03 0.07 0.03 89 1011.1
20260505111054 43 232 2.6 4.3 0.03 0.07 0.03 90 1011.1
20260505110552 43 234 1.7 3.5 0.03 0.07 0.03 89 1011.2
20260505102052 43 233 2.6 5.2 0.00 0.04 0.00 86 1011.2
20260505101601 43 239 0.9 2.6 0.00 0.04 0.00 87 1011.2
20260505101054 43 205 0.0 2.6 0.00 0.04 0.00 86 1011.3
20260505100555 43 265 0.0 2.6 0.00 0.04 0.00 86 1011.2
20260505100100 43 0 0.9 4.3 0.00 0.04 0.00 86 1011.2
20260505095553 43 298 1.7 4.3 0.00 0.04 0.00 85 1011.2
20260505095057 43 296 1.7 4.3 0.00 0.04 0.00 84 1011.2
20260505094602 43 330 1.7 4.3 0.00 0.04 0.00 83 1011.3
20260505094051 42 328 1.7 3.5 0.00 0.04 0.00 82 1011.2
20260505093555 42 282 0.0 1.7 0.00 0.04 0.00 82 1011.4
20260505093056 42 0 0.0 1.7 0.00 0.04 0.00 82 1011.4
20260505092555 42 292 0.9 1.7 0.00 0.04 0.00 82 1011.4
20260505092052 42 0 0.0 1.7 0.00 0.04 0.00 81 1011.2
20260505091602 42 0 0.0 1.7 0.00 0.04 0.00 81 1011.2
20260505091055 42 282 0.0 1.7 0.00 0.04 0.00 81 1011.3
20260505090551 42 0 0.0 2.6 0.00 0.04 0.00 81 1011.3
20260505090058 42 0 0.0 4.3 0.00 0.04 0.00 81 1011.3
20260505085553 42 57 0.0 4.3 0.00 0.04 0.00 81 1011.4
20260505085051 42 219 2.6 4.3 0.00 0.04 0.00 80 1011.2
20260505084604 41 239 1.7 4.3 0.00 0.04 0.00 80 1011.4
20260505084053 42 292 1.7 2.6 0.00 0.04 0.00 80 1011.4
20260505083554 42 294 0.9 2.6 0.00 0.04 0.00 80 1011.5
20260505083106 42 280 0.9 2.6 0.00 0.04 0.00 80 1011.4
20260505082552 42 265 0.9 2.6 0.00 0.04 0.00 80 1011.4
20260505082052 42 257 0.9 4.3 0.00 0.04 0.00 79 1011.4
20260505081551 42 265 0.9 4.3 0.00 0.04 0.00 79 1011.4
20260505081052 42 212 0.9 3.5 0.00 0.04 0.00 79 1011.5
20260505080551 43 265 0.9 3.5 0.00 0.04 0.00 78 1011.5
20260505080055 42 265 1.7 3.5 0.00 0.04 0.00 78 1011.6
20260505075552 42 279 1.7 3.5 0.00 0.04 0.00 78 1011.7
20260505075055 42 254 1.7 5.2 0.00 0.04 0.00 78 1011.6
20260505074553 42 305 0.9 5.2 0.00 0.04 0.00 78 1011.6
20260505074052 42 287 1.7 3.5 0.00 0.04 0.00 78 1011.5
20260505073552 42 250 0.9 3.5 0.00 0.04 0.00 78 1011.6
20260505073058 42 309 1.7 3.5 0.00 0.04 0.00 78 1011.5
20260505072555 42 279 0.9 3.5 0.00 0.04 0.00 78 1011.6
20260505072110 42 235 1.7 3.5 0.00 0.04 0.00 77 1011.6
20260505071602 42 157 0.0 2.6 0.00 0.04 0.00 77 1011.6
20260505071052 42 0 0.0 3.5 0.00 0.04 0.00 77 1011.6
20260505070552 42 312 0.9 3.5 0.00 0.04 0.00 77 1011.5
20260505070106 42 294 1.7 5.2 0.00 0.04 0.00 77 1011.5
20260505065551 42 292 1.7 5.2 0.00 0.04 0.00 76 1011.4
20260505065056 42 300 1.7 3.5 0.00 0.04 0.00 78 1011.4
20260505064558 42 275 0.9 2.6 0.00 0.04 0.00 78 1011.4
20260505064051 42 0 0.9 2.6 0.00 0.04 0.00 77 1011.4
20260505063554 42 292 0.9 3.5 0.00 0.04 0.00 77 1011.4
20260505063057 42 61 0.9 3.5 0.00 0.04 0.00 76 1011.3
20260505062557 42 292 0.9 3.5 0.00 0.04 0.00 76 1011.3
20260505062056 42 246 0.9 3.5 0.00 0.04 0.00 76 1011.3
20260505061630 42 254 0.9 2.6 0.00 0.04 0.00 75 1011.5
20260505061052 42 288 1.7 3.5 0.00 0.04 0.00 75 1011.4
20260505060554 42 250 1.7 3.5 0.00 0.04 0.00 75 1011.5
20260505055552 43 298 0.0 4.3 0.00 0.04 0.04 74 1011.5
20260505055053 43 150 0.0 5.2 0.00 0.04 0.04 73 1011.6
20260505054557 43 301 1.7 5.2 0.00 0.04 0.04 72 1011.5
20260505054051 43 282 1.7 3.5 0.00 0.04 0.04 71 1011.4
20260505053554 44 244 0.9 3.5 0.00 0.04 0.04 71 1011.4
20260505053059 44 325 1.7 3.5 0.00 0.04 0.04 70 1011.4
20260505052554 44 250 1.7 3.5 0.00 0.04 0.04 69 1011.4
20260505052054 44 243 2.6 6.1 0.00 0.04 0.04 69 1011.6
20260505051558 45 254 1.7 6.1 0.00 0.04 0.04 69 1011.6
20260505051052 45 246 2.6 6.1 0.00 0.04 0.04 69 1011.6
20260505050553 45 242 1.7 4.3 0.00 0.04 0.04 69 1011.8
20260505041556 46 269 1.7 6.1 0.00 0.04 0.04 66 1011.1
20260505041054 46 299 2.6 6.1 0.00 0.04 0.04 66 1011.1
20260505040554 47 289 2.6 7.0 0.00 0.04 0.04 65 1011.2
20260505035555 47 298 3.5 7.8 0.00 0.04 0.04 64 1011.0
20260505035057 48 298 3.5 7.8 0.00 0.04 0.04 63 1011.0
20260505034556 48 290 3.5 7.0 0.00 0.04 0.04 63 1010.9
20260505034052 48 311 3.5 7.0 0.00 0.04 0.04 63 1010.9
20260505033554 48 339 2.6 6.1 0.00 0.04 0.04 63 1011.0
20260505033100 48 335 2.6 7.0 0.00 0.04 0.04 62 1010.7
20260505032553 49 286 2.6 7.0 0.00 0.04 0.04 62 1010.7
20260505032058 49 328 2.6 6.1 0.00 0.04 0.04 61 1010.7
20260505031555 49 323 2.6 6.1 0.00 0.04 0.04 62 1010.6
20260505031054 49 292 3.5 6.1 0.00 0.04 0.04 60 1010.6
20260505030558 49 273 2.6 6.1 0.00 0.04 0.04 61 1010.5
20260505030057 50 288 2.6 7.0 0.00 0.04 0.04 60 1010.4
20260505025554 49 277 3.5 7.0 0.00 0.04 0.04 59 1010.4
20260505025053 49 342 3.5 7.0 0.00 0.04 0.04 60 1010.3
20260505024554 49 312 3.5 7.0 0.00 0.04 0.04 61 1010.2
20260505024054 49 300 3.5 6.1 0.00 0.04 0.04 61 1010.3
20260505023552 50 289 2.6 6.1 0.00 0.04 0.04 60 1010.2
20260505023054 50 282 1.7 3.5 0.00 0.04 0.04 60 1010.2
20260505022552 50 305 0.9 3.5 0.00 0.04 0.04 60 1010.2
20260505022057 50 275 1.7 3.5 0.00 0.04 0.04 59 1010.2
20260505021553 51 257 1.7 3.5 0.00 0.04 0.04 59 1010.2
20260505021055 51 244 1.7 3.5 0.00 0.04 0.04 58 1010.2
20260505020554 52 221 1.7 3.5 0.00 0.04 0.04 60 1010.3
20260505020054 52 265 1.7 4.3 0.00 0.04 0.04 57 1010.1
20260505015554 53 279 1.7 5.2 0.00 0.04 0.04 57 1010.1
20260505015054 53 269 2.6 5.2 0.00 0.04 0.04 55 1010.2
20260505014556 54 239 0.9 5.2 0.00 0.04 0.04 55 1010.2
20260505014054 54 292 0.9 7.0 0.00 0.04 0.04 51 1010.2
20260505013554 54 329 2.6 7.0 0.00 0.04 0.04 50 1010.3
20260505013054 54 317 2.6 7.0 0.00 0.04 0.04 50 1010.4
20260505012554 54 251 2.6 6.1 0.00 0.04 0.04 48 1010.4
20260505012055 55 261 3.5 7.0 0.00 0.04 0.04 47 1010.2
20260505011600 55 257 3.5 8.7 0.00 0.04 0.04 47 1010.3
20260505011055 55 228 3.5 10.4 0.00 0.04 0.04 49 1010.3
20260505010554 55 271 5.2 10.4 0.00 0.04 0.04 50 1010.3
20260505010104 55 243 5.2 10.4 0.00 0.04 0.04 51 1010.4
20260505005555 55 284 5.2 10.4 0.00 0.04 0.04 52 1010.6
20260505005057 55 257 3.5 10.4 0.00 0.04 0.04 53 1010.7
20260505004552 54 279 5.2 10.4 0.00 0.04 0.04 54 1010.7
20260505004055 54 252 5.2 10.4 0.00 0.04 0.04 56 1010.7
20260505003554 54 239 5.2 9.6 0.00 0.04 0.04 54 1010.7
20260505003056 53 221 4.3 8.7 0.00 0.04 0.04 54 1010.9
20260505002554 53 268 5.2 8.7 0.00 0.04 0.04 55 1010.9
20260505002054 52 232 1.7 12.2 0.00 0.04 0.04 56 1011.1
20260505001554 52 323 1.7 12.2 0.01 0.04 0.04 54 1011.3
20260505001051 51 296 6.1 12.2 0.01 0.04 0.04 53 1011.3
20260505000551 51 314 5.2 11.3 0.02 0.04 0.04 58 1011.6
20260505000101 50 309 2.6 9.6 0.03 0.04 0.04 62 1011.9
20260504235555 49 273 4.3 9.6 0.03 0.04 0.04 65 1012.1
20260504235055 49 273 5.2 8.7 0.04 0.04 0.04 68 1012.3
20260504234605 49 261 5.2 13.0 0.04 0.04 0.04 68 1012.4
20260504234057 48 282 5.2 13.0 0.04 0.04 0.04 68 1012.4
20260504233554 48 282 6.1 15.6 0.04 0.04 0.04 68 1012.5
20260504233059 48 282 7.8 15.6 0.04 0.04 0.04 69 1012.6
20260504232555 48 261 9.6 17.4 0.04 0.04 0.04 70 1012.4
20260504232056 48 277 8.7 17.4 0.04 0.04 0.04 70 1012.5
20260504231553 48 257 10.4 21.7 0.03 0.03 0.03 70 1012.5
20260504231055 49 273 10.4 22.6 0.03 0.03 0.03 68 1012.5
20260504230554 50 275 13.9 22.6 0.02 0.02 0.02 65 1012.6
20260504230055 50 290 11.3 24.3 0.01 0.01 0.01 63 1012.6
20260504225552 51 296 13.9 24.3 0.01 0.01 0.01 62 1012.3
20260504225057 51 284 11.3 21.7 0.00 0.00 0.00 59 1012.2
20260504224554 51 252 10.4 20.0 0.00 0.00 0.00 60 1011.7
20260504224055 52 225 9.6 18.2 0.00 0.00 0.00 58 1011.6
20260504223555 52 298 6.1 16.5 0.00 0.00 0.00 56 1011.6
20260504223055 53 271 7.0 16.5 0.00 0.00 0.00 53 1011.6
20260504222555 54 261 10.4 16.5 0.00 0.00 0.00 52 1011.7
20260504222058 55 255 7.8 18.2 0.00 0.00 0.00 51 1011.6
20260504221551 56 86 7.0 18.2 0.00 0.00 0.00 51 1011.4
20260504221054 56 141 9.6 19.1 0.00 0.00 0.00 48 1011.2
20260504220554 57 163 7.0 19.1 0.00 0.00 0.00 46 1011.2
20260504215552 58 115 7.0 18.2 0.00 0.00 0.00 44 1011.1
20260504215051 59 154 7.8 18.2 0.00 0.00 0.00 42 1011.2
20260504214600 60 157 7.8 18.2 0.00 0.00 0.00 43 1011.1
20260504214053 61 171 8.7 18.2 0.00 0.00 0.00 39 1011.2
20260504213552 62 34 8.7 18.2 0.00 0.00 0.00 37 1011.4
20260504213111 64 138 5.2 15.6 0.00 0.00 0.00 32 1011.5
20260504212555 64 74 2.6 7.8 0.00 0.00 0.00 30 1011.1
20260504212055 64 78 2.6 12.2 0.00 0.00 0.00 30 1011.1
20260504211556 64 239 2.6 12.2 0.00 0.00 0.00 28 1011.1
20260504211054 65 38 3.5 12.2 0.00 0.00 0.00 31 1011.2
20260504210554 65 66 3.5 12.2 0.00 0.00 0.00 30 1011.3
20260504210104 65 9 2.6 12.2 0.00 0.00 0.00 30 1011.4
20260504205555 66 29 5.2 12.2 0.00 0.00 0.00 31 1011.5
20260504205054 65 169 4.3 12.2 0.00 0.00 0.00 30 1011.5
20260504204605 64 69 3.5 12.2 0.00 0.00 0.00 32 1011.5
20260504204054 63 69 2.6 13.0 0.00 0.00 0.00 32 1011.5
20260504203552 62 16 4.3 13.0 0.00 0.00 0.00 33 1011.5
20260504203058 62 111 7.0 13.0 0.00 0.00 0.00 31 1011.6
20260504202555 63 22 6.1 13.0 0.00 0.00 0.00 31 1011.7
20260504202057 63 335 4.3 18.2 0.00 0.00 0.00 32 1011.7
20260504201553 63 47 6.1 18.2 0.00 0.00 0.00 33 1011.8
20260504201055 64 27 6.1 16.5 0.00 0.00 0.00 32 1011.6
20260504200555 64 344 7.0 16.5 0.00 0.00 0.00 30 1011.7
20260504200059 65 344 7.0 16.5 0.00 0.00 0.00 29 1011.8
20260504195554 66 57 9.6 16.5 0.00 0.00 0.00 29 1011.8
20260504195054 65 44 7.8 16.5 0.00 0.00 0.00 29 1011.8
20260504194559 65 53 3.5 13.9 0.00 0.00 0.00 30 1011.8
20260504194054 64 339 6.1 13.9 0.00 0.00 0.00 31 1011.8
20260504193554 64 25 3.5 14.8 0.00 0.00 0.00 32 1011.8
20260504193113 63 344 6.1 14.8 0.00 0.00 0.00 32 1012.0
20260504192553 62 21 4.3 15.6 0.00 0.00 0.00 34 1012.0
20260504192054 62 45 4.3 15.6 0.00 0.00 0.00 33 1012.0
20260504191559 62 30 5.2 15.6 0.00 0.00 0.00 32 1011.9
20260504191052 62 22 1.7 7.0 0.00 0.00 0.00 31 1012.1
20260504190555 62 360 2.6 7.0 0.00 0.00 0.00 30 1012.0
20260504190107 61 254 1.7 6.1 0.00 0.00 0.00 33 1012.1
20260504185554 60 178 0.9 9.6 0.00 0.00 0.00 32 1012.2
20260504185054 60 153 2.6 9.6 0.00 0.00 0.00 31 1012.4
20260504184556 61 230 2.6 15.6 0.00 0.00 0.00 32 1012.4
20260504184057 61 229 3.5 15.6 0.00 0.00 0.00 31 1012.3
20260504183555 62 93 4.3 16.5 0.00 0.00 0.00 31 1012.4
20260504183101 61 102 6.1 16.5 0.00 0.00 0.00 32 1012.3
20260504182554 61 167 7.0 16.5 0.00 0.00 0.00 32 1012.4
20260504182052 61 120 6.1 10.4 0.00 0.00 0.00 33 1012.5
20260504181559 61 153 3.5 8.7 0.00 0.00 0.00 36 1012.5
20260504181052 61 120 2.6 8.7 0.00 0.00 0.00 35 1012.5
20260504180557 61 171 3.5 8.7 0.00 0.00 0.00 34 1012.5
20260504180138 61 155 5.2 8.7 0.00 0.00 0.00 35 1012.5
20260504175555 62 138 3.5 7.8 0.00 0.00 0.00 34 1012.5
20260504175055 63 159 2.6 7.8 0.00 0.00 0.00 33 1012.5
20260504174555 63 193 2.6 6.1 0.00 0.00 0.00 31 1012.5
20260504174055 63 0 0.9 6.1 0.00 0.00 0.00 30 1012.5
20260504173555 63 178 1.7 6.1 0.00 0.00 0.00 31 1012.5
20260504173056 64 141 1.7 5.2 0.00 0.00 0.00 32 1012.5
20260504172555 64 139 0.9 8.7 0.00 0.00 0.00 30 1012.5
20260504172056 64 149 0.9 8.7 0.00 0.00 0.00 29 1012.6
20260504171558 64 53 4.3 8.7 0.00 0.00 0.00 29 1012.5
20260504171054 64 32 1.7 7.8 0.00 0.00 0.00 30 1012.5
20260504170555 64 76 4.3 7.8 0.00 0.00 0.00 32 1012.6